EUTELSAT QUANTUM

Last updated on Fri Jun 19 2026 17:09:34 GMT+0000 (Coordinated Universal Time)

1 49056U 21069B 26169.76238150 .00000120 00000+0 00000+0 0 9999 2 49056 0.0145 22.6393 0002111 63.8054 142.7031 1.00272154 17943
UTC large
Height (km)
Speed (km/s)
/
Latitude / Longitude
Inclination (degrees)
Orbital Period (minutes)
Azimuth
Elevation
Range (km)
Doppler Factor

Next 0 passes for location: London (51.5072 / 0.1276)

No passes found over London.
EUTELSAT QUANTUM